DW6282 Weather Reports


Display with metric or nautical units.
time (UTC)temp
F
wind
direction
speed
MPH
gust
MPH
rain 1hr
in
rain 24hr
in
rain mn
in
humidity
%
barometer
mb
20260902021551 80 316 0.0 0.0 0.00 0.02 0.02 88 1011.2
20260902020043 80 305 0.0 0.0 0.00 0.02 0.02 88 1011.2
20260902014542 80 305 0.0 0.0 0.00 0.02 0.02 87 1011.0
20260902013043 81 305 0.0 0.0 0.00 0.02 0.02 87 1010.8
20260902011541 81 305 0.0 0.0 0.00 0.02 0.02 85 1010.6
20260902010039 81 305 0.0 0.0 0.00 0.02 0.02 85 1010.6
20260902004538 82 305 0.0 0.0 0.00 0.02 0.02 84 1010.8
20260902003038 82 324 0.0 1.0 0.00 0.02 0.02 83 1010.9
20260902001537 82 328 0.0 4.0 0.00 0.02 0.02 83 1011.1
20260902000038 83 4 2.0 9.0 0.00 0.02 0.02 83 1010.9
20260901234535 83 8 5.0 7.0 0.00 0.02 0.02 82 1010.9
20260901233033 83 6 4.0 7.0 0.00 0.02 0.02 83 1011.0
20260901231533 84 8 1.0 5.0 0.00 0.02 0.02 84 1011.1
20260901230039 84 13 4.0 9.0 0.00 0.02 0.02 85 1011.3
20260901224536 84 9 0.0 4.0 0.00 0.02 0.02 83 1011.3
20260901223030 84 316 0.0 2.0 0.00 0.02 0.02 82 1011.1
20260901221530 83 302 0.0 5.0 0.01 0.02 0.02 84 1011.0
20260901220039 83 279 0.0 3.0 0.01 0.02 0.02 85 1011.0
20260901214526 83 290 0.0 3.0 0.01 0.02 0.02 85 1011.3
20260901213040 83 331 0.0 5.0 0.01 0.02 0.02 82 1011.6
20260901211525 83 310 0.0 4.0 0.00 0.01 0.01 83 1011.7
20260901210026 83 301 0.0 2.0 0.00 0.01 0.01 81 1011.7
20260901204533 84 300 0.0 4.0 0.00 0.02 0.01 82 1011.7
20260901203033 83 320 0.0 5.0 0.00 0.02 0.01 81 1011.7
20260901201521 83 326 1.0 7.0 0.01 0.02 0.01 81 1011.7
20260901200018 83 333 2.0 5.0 0.01 0.02 0.01 82 1012.0
20260901194515 83 329 2.0 5.0 0.01 0.47 0.01 81 1012.4
20260901193014 83 341 1.0 4.0 0.01 0.47 0.01 81 1012.6
20260901191512 82 4 2.0 6.0 0.00 0.46 0.00 83 1012.7
20260901190011 83 4 4.0 7.0 0.00 0.46 0.00 83 1012.8
20260901184526 83 358 3.0 6.0 0.00 0.46 0.00 82 1013.1
20260901183012 83 325 3.0 8.0 0.00 0.46 0.00 83 1013.2
20260901181510 83 13 3.0 8.0 0.00 0.46 0.00 84 1013.2
20260901180009 83 18 5.0 9.0 0.00 0.46 0.00 85 1013.1
20260901174528 83 338 4.0 10.0 0.00 0.46 0.00 83 1013.2
20260901173007 83 24 7.0 10.0 0.00 0.46 0.00 81 1013.5
20260901171508 83 16 4.0 8.0 0.00 0.46 0.00 83 1014.1
20260901170007 84 12 5.0 9.0 0.00 0.46 0.00 81 1014.3
20260901164506 85 349 5.0 8.0 0.00 0.46 0.00 79 1014.3
20260901163005 85 13 3.0 9.0 0.00 0.46 0.00 81 1014.5
20260901161507 85 11 6.0 13.0 0.00 0.46 0.00 82 1014.5
20260901160004 85 5 6.0 11.0 0.00 0.46 0.00 81 1014.3
20260901154558 84 8 5.0 9.0 0.00 0.46 0.00 82 1014.1
20260901153111 84 292 4.0 8.0 0.00 0.46 0.00 83 1014.0
20260901151601 83 16 3.0 6.0 0.00 0.46 0.00 85 1014.0
20260901150051 83 331 1.0 5.0 0.00 0.46 0.00 86 1014.0
20260901144550 82 347 2.0 5.0 0.00 0.46 0.00 87 1013.9
20260901143106 82 323 1.0 6.0 0.00 0.46 0.00 88 1014.0
20260901141548 82 4 2.0 4.0 0.00 0.46 0.00 88 1014.1
20260901140144 81 314 2.0 5.0 0.00 0.46 0.00 89 1014.0
20260901134543 81 340 2.0 6.0 0.00 0.46 0.00 91 1013.8
20260901133042 80 13 2.0 4.0 0.00 0.46 0.00 95 1013.9
20260901131538 79 352 0.0 3.0 0.00 0.46 0.00 98 1013.9
20260901130034 79 329 0.0 4.0 0.00 0.46 0.00 98 1013.7
20260901124536 78 4 3.0 5.0 0.00 0.46 0.00 98 1013.6
20260901123045 78 9 0.0 2.0 0.00 0.46 0.00 98 1013.2
20260901121536 78 9 0.0 1.0 0.00 0.46 0.00 98 1013.0
20260901120043 78 9 1.0 3.0 0.00 0.46 0.00 98 1012.9
20260901114535 78 6 3.0 4.0 0.00 0.46 0.00 98 1013.0
20260901113035 78 18 1.0 3.0 0.00 0.46 0.00 98 1012.9
20260901111531 78 335 0.0 1.0 0.00 0.46 0.00 98 1012.8
20260901110028 78 335 0.0 3.0 0.00 0.46 0.00 98 1012.8
20260901104527 77 319 1.0 3.0 0.00 0.46 0.00 98 1012.7
20260901103027 77 252 0.0 1.0 0.00 0.46 0.00 98 1012.8
20260901101528 77 252 0.0 1.0 0.00 0.46 0.00 98 1012.8
20260901100025 77 252 0.0 0.0 0.00 0.46 0.00 98 1012.7
20260901094524 77 252 0.0 0.0 0.00 0.46 0.00 98 1012.7
20260901093022 77 252 0.0 0.0 0.00 0.46 0.00 98 1012.9
20260901091521 77 252 0.0 0.0 0.00 0.46 0.00 98 1013.0
20260901090020 77 251 0.0 3.0 0.00 0.46 0.00 98 1013.2
20260901084519 77 251 0.0 1.0 0.00 0.46 0.00 98 1013.2
20260901083022 77 251 0.0 1.0 0.00 0.46 0.00 98 1013.1
20260901081518 77 149 0.0 0.0 0.00 0.46 0.00 98 1013.1
20260901080018 77 149 0.0 0.0 0.00 0.46 0.00 98 1013.0
20260901074518 77 149 0.0 0.0 0.00 0.46 0.00 98 1013.0
20260901073019 77 149 0.0 0.0 0.00 0.46 0.00 98 1013.0
20260901071513 78 149 0.0 0.0 0.00 0.46 0.00 98 1013.2
20260901070012 78 149 0.0 0.0 0.00 0.46 0.00 98 1013.4
20260901064512 78 149 0.0 0.0 0.00 0.46 0.00 98 1013.3
20260901063012 78 149 0.0 0.0 0.00 0.46 0.00 98 1013.3
20260901061517 78 149 0.0 0.0 0.00 0.46 0.00 98 1013.4
20260901060008 78 149 0.0 0.0 0.00 0.46 0.00 98 1013.5
20260901054507 78 149 0.0 0.0 0.00 0.46 0.00 98 1013.5
20260901053006 78 149 0.0 0.0 0.00 0.46 0.00 98 1013.4
20260901051504 78 149 0.0 0.0 0.00 0.46 0.00 98 1013.4
20260901050002 78 149 0.0 0.0 0.00 0.46 0.00 98 1013.3
20260901044501 78 149 0.0 0.0 0.00 0.46 0.46 98 1013.2
20260901043001 79 149 0.0 0.0 0.00 0.46 0.46 98 1013.2
20260901041600 78 149 0.0 0.0 0.00 0.46 0.46 98 1013.3
20260901040059 78 149 0.0 0.0 0.00 0.46 0.46 97 1013.3
20260901034559 78 149 0.0 0.0 0.00 0.46 0.46 97 1013.3
20260901033059 78 149 0.0 0.0 0.00 0.46 0.46 97 1013.3
20260901031601 78 149 0.0 0.0 0.00 0.46 0.46 97 1013.2
20260901030059 78 149 0.0 0.0 0.00 0.46 0.46 97 1013.1
20260901024557 79 149 0.0 0.0 0.00 0.46 0.46 97 1012.7
20260901023057 79 149 0.0 0.0 0.00 0.46 0.46 97 1012.5